TimeCDT,TemperatureF,Dew PointF,Humidity,Sea Level PressureIn,VisibilityMPH,Wind Direction,Wind SpeedMPH,Gust SpeedMPH,PrecipitationIn,Events,Conditions,WindDirDegrees,DateUTC
12:15 AM,46.0,37.4,72,29.91,7.0,Calm,Calm,-,N/A,,Clear,0,2012-10-03 05:15:00
12:35 AM,43.2,35.4,74,29.91,7.0,Calm,Calm,-,N/A,,Clear,0,2012-10-03 05:35:00
12:55 AM,43.5,36.0,75,29.91,7.0,Calm,Calm,-,N/A,,Clear,0,2012-10-03 05:55:00
1:15 AM,45.7,38.3,75,29.91,10.0,Calm,Calm,-,N/A,,Clear,0,2012-10-03 06:15:00
1:35 AM,44.2,36.3,74,29.92,10.0,Calm,Calm,-,N/A,,Clear,0,2012-10-03 06:35:00
1:55 AM,41.9,35.2,77,29.92,10.0,Calm,Calm,-,N/A,,Clear,0,2012-10-03 06:55:00
2:15 AM,43.5,37.2,78,29.92,10.0,Calm,Calm,-,N/A,,Clear,0,2012-10-03 07:15:00
2:35 AM,44.6,39.4,82,29.92,10.0,Calm,Calm,-,N/A,,Clear,0,2012-10-03 07:35:00
3:09 AM,42.8,37.4,81,29.92,10.0,Calm,Calm,-,N/A,,Clear,0,2012-10-03 08:09:00
3:26 AM,42.8,37.4,81,29.92,10.0,Calm,Calm,-,N/A,,Clear,0,2012-10-03 08:26:00
3:46 AM,44.6,39.2,81,29.92,10.0,Calm,Calm,-,N/A,,Clear,0,2012-10-03 08:46:00
4:05 AM,42.8,37.4,81,29.92,10.0,Calm,Calm,-,N/A,,Clear,0,2012-10-03 09:05:00
4:15 AM,41.5,36.7,83,29.92,10.0,Calm,Calm,-,N/A,,Clear,0,2012-10-03 09:15:00
4:35 AM,40.1,35.4,83,29.92,10.0,Calm,Calm,-,N/A,,Clear,0,2012-10-03 09:35:00
5:15 AM,41.2,35.8,81,29.92,10.0,Calm,Calm,-,N/A,,Clear,0,2012-10-03 10:15:00
5:35 AM,41.0,37.2,86,29.92,10.0,Calm,Calm,-,N/A,,Clear,0,2012-10-03 10:35:00
5:55 AM,38.1,33.8,84,29.93,10.0,Calm,Calm,-,N/A,,Clear,0,2012-10-03 10:55:00
6:15 AM,39.7,35.2,84,29.93,10.0,Calm,Calm,-,N/A,,Clear,0,2012-10-03 11:15:00
6:35 AM,38.3,34.5,86,29.94,10.0,Calm,Calm,-,N/A,,Clear,0,2012-10-03 11:35:00
6:55 AM,40.8,38.1,90,29.94,10.0,Calm,Calm,-,N/A,,Clear,0,2012-10-03 11:55:00
7:15 AM,40.6,37.2,88,29.94,10.0,Calm,Calm,-,N/A,,Clear,0,2012-10-03 12:15:00
7:35 AM,38.8,35.1,86,29.95,7.0,Calm,Calm,-,N/A,,Clear,0,2012-10-03 12:35:00
7:55 AM,39.6,36.5,89,29.95,7.0,Calm,Calm,-,N/A,,Clear,0,2012-10-03 12:55:00
8:35 AM,47.3,42.4,83,29.95,7.0,Calm,Calm,-,N/A,,Clear,0,2012-10-03 13:35:00
8:55 AM,50.7,44.4,79,29.96,7.0,Calm,Calm,-,N/A,,Clear,0,2012-10-03 13:55:00
9:15 AM,54.5,46.2,74,29.96,7.0,Calm,Calm,-,N/A,,Clear,0,2012-10-03 14:15:00
9:35 AM,58.3,47.8,68,29.96,10.0,SE,4.6,-,N/A,,Clear,130,2012-10-03 14:35:00
9:55 AM,61.5,48.4,62,29.96,10.0,ESE,3.5,-,N/A,,Clear,110,2012-10-03 14:55:00
10:15 AM,64.2,46.4,52,29.96,10.0,South,3.5,-,N/A,,Clear,170,2012-10-03 15:15:00
10:55 AM,68.9,45.5,43,29.95,10.0,South,5.8,-,N/A,,Clear,170,2012-10-03 15:55:00
11:15 AM,69.8,46.2,43,29.95,10.0,SSE,8.1,-,N/A,,Clear,160,2012-10-03 16:15:00
11:35 AM,70.5,46.9,43,29.94,7.0,SE,8.1,-,N/A,,Clear,140,2012-10-03 16:35:00
11:55 AM,71.6,46.0,40,29.94,7.0,South,6.9,-,N/A,,Clear,170,2012-10-03 16:55:00
12:15 PM,72.5,44.4,36,29.94,5.0,South,8.1,16.1,N/A,,Haze,180,2012-10-03 17:15:00
12:35 PM,72.9,44.2,36,29.93,7.0,SE,6.9,-,N/A,,Clear,140,2012-10-03 17:35:00
12:55 PM,73.6,44.1,35,29.92,7.0,South,11.5,17.3,N/A,,Clear,190,2012-10-03 17:55:00
1:15 PM,74.5,44.4,34,29.91,7.0,South,9.2,-,N/A,,Clear,180,2012-10-03 18:15:00
1:35 PM,74.7,43.5,33,29.90,5.0,South,12.7,16.1,N/A,,Haze,170,2012-10-03 18:35:00
2:15 PM,75.6,44.2,33,29.89,5.0,SSE,9.2,17.3,N/A,,Haze,160,2012-10-03 19:15:00
2:35 PM,75.4,42.4,31,29.89,7.0,South,16.1,19.6,N/A,,Clear,190,2012-10-03 19:35:00
2:55 PM,76.3,43.5,31,29.88,7.0,SSE,12.7,17.3,N/A,,Clear,150,2012-10-03 19:55:00
3:15 PM,76.1,41.7,29,29.88,7.0,SSW,15.0,-,N/A,,Clear,200,2012-10-03 20:15:00
3:35 PM,76.1,43.5,31,29.88,7.0,SSE,8.1,-,N/A,,Clear,160,2012-10-03 20:35:00
3:55 PM,76.3,42.8,30,29.87,7.0,South,15.0,19.6,N/A,,Clear,190,2012-10-03 20:55:00
4:15 PM,76.3,41.7,29,29.87,7.0,SSW,11.5,-,N/A,,Clear,200,2012-10-03 21:15:00
4:35 PM,76.1,42.1,30,29.86,7.0,South,11.5,-,N/A,,Clear,170,2012-10-03 21:35:00
4:55 PM,75.9,43.2,31,29.86,7.0,South,13.8,-,N/A,,Clear,170,2012-10-03 21:55:00
5:15 PM,75.7,43.0,31,29.86,10.0,South,11.5,-,N/A,,Clear,180,2012-10-03 22:15:00
5:35 PM,75.4,41.5,30,29.86,7.0,South,12.7,-,N/A,,Clear,170,2012-10-03 22:35:00
5:55 PM,74.8,40.6,29,29.87,5.0,South,9.2,17.3,N/A,,Haze,170,2012-10-03 22:55:00
6:15 PM,72.9,41.0,32,29.88,10.0,South,5.8,-,N/A,,Clear,180,2012-10-03 23:15:00
6:35 PM,70.9,39.4,32,29.88,10.0,South,8.1,-,N/A,,Clear,190,2012-10-03 23:35:00
7:15 PM,63.5,39.2,41,29.88,10.0,SSE,6.9,-,N/A,,Clear,160,2012-10-04 00:15:00
7:35 PM,62.2,39.2,43,29.88,10.0,SSE,6.9,-,N/A,,Clear,160,2012-10-04 00:35:00
7:55 PM,61.5,39.0,43,29.89,10.0,SSE,8.1,-,N/A,,Clear,160,2012-10-04 00:55:00
8:15 PM,61.2,39.2,44,29.89,10.0,SSE,5.8,-,N/A,,Clear,160,2012-10-04 01:15:00
8:35 PM,59.7,38.3,45,29.91,10.0,SSE,4.6,-,N/A,,Clear,160,2012-10-04 01:35:00
8:55 PM,58.1,39.0,49,29.91,7.0,SSE,6.9,-,N/A,,Clear,160,2012-10-04 01:55:00
9:15 PM,57.9,39.2,50,29.92,10.0,SSE,5.8,-,N/A,,Clear,160,2012-10-04 02:15:00
9:35 PM,56.1,38.8,52,29.92,10.0,SSE,6.9,-,N/A,,Clear,150,2012-10-04 02:35:00
9:55 PM,54.7,39.2,56,29.92,10.0,SE,8.1,-,N/A,,Clear,140,2012-10-04 02:55:00
10:15 PM,52.9,39.6,61,29.92,10.0,SSE,6.9,-,N/A,,Clear,150,2012-10-04 03:15:00
10:35 PM,53.1,39.6,60,29.93,10.0,SSE,8.1,-,N/A,,Clear,150,2012-10-04 03:35:00
10:55 PM,54.3,40.3,59,29.93,10.0,SSE,8.1,-,N/A,,Clear,160,2012-10-04 03:55:00
11:15 PM,54.0,40.3,60,29.94,10.0,SSE,8.1,-,N/A,,Clear,160,2012-10-04 04:15:00
11:35 PM,53.4,40.3,61,29.94,10.0,South,9.2,-,N/A,,Clear,170,2012-10-04 04:35:00
11:55 PM,54.0,41.4,62,29.94,10.0,South,8.1,-,N/A,,Clear,170,2012-10-04 04:55:00